TimeGMT,TemperatureF,Dew PointF,Humidity,Sea Level PressureIn,VisibilityMPH,Wind Direction,Wind SpeedMPH,Gust SpeedMPH,PrecipitationIn,Events,Conditions,WindDirDegrees,DateUTC
12:50 AM,46.4,44.6,93,29.42,6.2,SSW,6.9,-,N/A,,Mostly Cloudy,200,2012-11-10 00:50:00
1:50 AM,46.4,42.8,87,29.42,6.2,SSW,8.1,-,N/A,,Mostly Cloudy,210,2012-11-10 01:50:00
2:50 AM,46,42,80,29.42,28,SSW,8.1,,,,Scattered Clouds,200,2012-11-10 02:50:00
2:50 AM,46.4,41.0,81,29.42,6.2,SSW,8.1,-,N/A,,Mostly Cloudy,200,2012-11-10 02:50:00
3:50 AM,44.6,41.0,87,29.39,6.2,South,4.6,-,N/A,,Overcast,180,2012-11-10 03:50:00
4:50 AM,41.0,39.2,93,29.39,6.2,South,5.8,-,N/A,,Scattered Clouds,180,2012-11-10 04:50:00
5:50 AM,40,39,94,29.40,5,South,3.5,,,,Mist,190,2012-11-10 05:50:00
5:50 AM,39.2,39.2,100,29.39,5.0,South,3.5,-,N/A,,Mostly Cloudy,190,2012-11-10 05:50:00
6:50 AM,39.2,37.4,93,29.39,2.8,South,6.9,-,N/A,,Scattered Clouds,180,2012-11-10 06:50:00
7:50 AM,37.4,37.4,100,29.39,-9999.0,SSW,4.6,-,N/A,,Mostly Cloudy,200,2012-11-10 07:50:00
8:50 AM,39,38,94,29.40,5,South,4.6,,,,Mist,170,2012-11-10 08:50:00
8:50 AM,39.2,37.4,93,29.39,5.0,South,4.6,-,N/A,,Mostly Cloudy,170,2012-11-10 08:50:00
10:50 AM,44.6,41.0,87,29.39,6.2,South,3.5,-,N/A,,Partly Cloudy,180,2012-11-10 10:50:00
11:50 AM,48,41,70,29.38,13,SW,5.8,,,,Scattered Clouds,220,2012-11-10 11:50:00
11:50 AM,48.2,41.0,76,29.36,6.2,SW,5.8,-,N/A,,Partly Cloudy,220,2012-11-10 11:50:00
12:50 PM,48.2,41.0,76,29.36,6.2,West,5.8,-,N/A,,Partly Cloudy,260,2012-11-10 12:50:00
1:50 PM,50.0,37.4,62,29.36,6.2,WSW,8.1,-,N/A,,Partly Cloudy,250,2012-11-10 13:50:00
2:50 PM,49,35,48,29.36,11,WSW,6.9,,,,Scattered Clouds,250,2012-11-10 14:50:00
2:50 PM,50.0,35.6,58,29.36,6.2,WSW,6.9,-,N/A,,Partly Cloudy,250,2012-11-10 14:50:00
3:50 PM,46.4,39.2,76,29.36,6.2,WSW,3.5,-,N/A,,Unknown,250,2012-11-10 15:50:00
4:50 PM,41.0,39.2,93,29.36,6.2,SSW,4.6,-,N/A,,Unknown,210,2012-11-10 16:50:00
5:50 PM,41,36,77,29.40,7,WSW,4.6,,,,,240,2012-11-10 17:50:00
5:50 PM,41.0,35.6,81,29.39,6.2,WSW,4.6,-,N/A,,Unknown,240,2012-11-10 17:50:00
6:50 PM,39.2,35.6,87,29.42,6.2,SSW,3.5,-,N/A,,Unknown,210,2012-11-10 18:50:00
7:50 PM,37.4,35.6,93,29.42,6.2,South,4.6,-,N/A,,Unknown,180,2012-11-10 19:50:00
8:50 PM,35,34,96,29.45,6,South,3.5,,,,Scattered Clouds,190,2012-11-10 20:50:00
8:50 PM,35.6,33.8,93,29.44,6.2,South,3.5,-,N/A,,Scattered Clouds,190,2012-11-10 20:50:00
9:50 PM,35.6,33.8,93,29.44,5.0,SSW,5.8,-,N/A,,Haze,210,2012-11-10 21:50:00
10:50 PM,37.4,35.6,93,29.47,3.1,SW,4.6,-,N/A,,Mist,220,2012-11-10 22:50:00
11:50 PM,37,36,93,29.51,4,WSW,8.1,,,,Mist,240,2012-11-10 23:50:00
11:50 PM,37.4,35.6,93,29.50,4.3,WSW,8.1,-,N/A,,Mist,240,2012-11-10 23:50:00